Simultaneous Nadir Overpasses (SNOs) Predictions

Prediction of SNOs between LANDSAT-8 and NOAA-19 Satellite Orbit:

Table of predicted SNOs for the next 14.0 days since TLE Epoch: 6/16/2017
Index Date (LANDSAT-8) Time (LANDSAT-8) Lat,Lon (LANDSAT-8) SZA (LANDSAT-8 ) Date (NOAA-19) Time (NOAA-19) Lat,Lon (NOAA-19) SZA (NOAA-19 ) Distance(km) Time Diff (sec)
1 06/18/2017 05:48:11 -76.26, -78.02 127.04 06/18/2017 05:47:10 -76.28, -78.07 127.04 2.36 61
2 06/18/2017 06:37:38 76.20, 89.43 52.89 06/18/2017 06:38:09 76.21, 89.44 52.91 1.05 31
3 06/20/2017 11:21:55 76.26, 18.54 52.93 06/20/2017 11:20:59 76.28, 18.52 52.94 2.72 56
4 06/20/2017 12:11:23 -76.23,-173.91 127.11 06/20/2017 12:11:58 -76.22,-173.99 127.12 2.44 35
5 06/22/2017 16:55:40 -76.29, 115.21 127.04 06/22/2017 16:54:47 -76.28, 115.15 127.06 2.09 53
6 06/22/2017 17:45:06 76.23, -77.36 52.89 06/22/2017 17:45:46 76.21, -77.32 52.88 2.48 40
7 06/24/2017 22:29:23 76.28,-148.26 52.99 06/24/2017 22:28:36 76.29,-148.28 52.99 0.91 47
8 06/24/2017 23:18:52 -76.21, 19.15 127.10 06/24/2017 23:19:34 -76.23, 19.20 127.07 2.54 42
9 06/27/2017 04:03:08 -76.31, -51.59 126.91 06/27/2017 04:02:23 -76.29, -51.68 126.94 3.27 45
10 06/27/2017 04:52:35 76.24, 115.82 53.02 06/27/2017 04:53:24 76.22, 115.85 53.00 2.83 49
11 06/29/2017 09:36:52 76.29, 44.92 53.18 06/29/2017 09:36:14 76.31, 44.87 53.18 2.13 38




NCC Satellite Simultaneous Nadir Overpasses (SNOs) Prediction Service
